Location: Clanezzo
(45.7500°N, 9.6000°E)
Time: 10:48:08
(UTC+00:00)

CUTE-I - Pass Details

Date: 09 December 2023
Orbit: 807 x 822 km, 98.7° (Epoch: 23 February)

Event Time Altitude Azimuth Distance (km) Brightness Sun altitude
Rises 16:50:03 0° 169° (S) 3,314 ? -12.2°
Reaches altitude 10° 16:52:23 10° 171° (S) 2,389 ? -12.6°
Maximum altitude 16:57:40 74° 256° (WSW) 849 ? -13.4°
Drops below altitude 10° 17:03:01 10° 342° (NNW) 2,417 ? -14.3°
Sets 17:05:23 0° 345° (NNW) 3,356 ? -14.7°
